Weather History for North Platte, NE

Change the Weather History Date:

Monday, April 29, 2013

  Actual Average Record
Temperature  
Mean Temperature 66 °F 52 °F  
Max Temperature 83 °F 67 °F 93 °F (1887)
Min Temperature 48 °F 38 °F 19 °F (1908)
Degree Days  
Heating Degree Days 0 13  
Month to date heating degree days 643 512  
Since 1 July heating degree days 6476 6377  
Cooling Degree Days 1 0  
Month to date cooling degree days 1 0  
Year to date cooling degree days 1 0  
Growing Degree Days 15 (Base 50)    
Moisture  
Dew Point 38 °F    
Average Humidity 43    
Maximum Humidity 66    
Minimum Humidity 20    
Precipitation  
Precipitation T in 0.09 in 0.86 in (1911)
Month to date precipitation 1.27 2.18  
Year to date precipitation 3.04 4.07  
Snow  
Snow 0.00 in 0.10 in 5.40 in (1984)
Month to date snowfall 6.7 3.2  
Since 1 July snowfall 29.3 28.5  
Snow Depth 0.00 in    
Sea Level Pressure  
Sea Level Pressure 29.64 in    
Wind  
Wind Speed 9 mph (SSE)    
Max Wind Speed 21 mph    
Max Gust Speed 26 mph    
Visibility 10 miles    
Events      
T = Trace of Precipitation, MM = Missing Value Source: NWS Daily Summary

Daily Weather History Graph

Daily Weather History Graph

Search for Another Location

Airport:

Trip Planner

Search our weather history database for the weather conditions in past years. The results will help you decide how hot, cold, wet, or windy it might be!

Date:

Astronomy

Apr. 29, 2013 Rise Set
Actual Time 6:42 AM CDT 8:37 PM CDT
Civil Twilight 6:12 AM CDT 9:07 PM CDT
Nautical Twilight 5:36 AM CDT 9:44 PM CDT
Astronomical Twilight 4:57 AM CDT 10:23 PM CDT
Moon 12:09 AM CDT (4/29) 10:04 AM CDT (4/29)
Length of Visible Light 14h 54m
Length of Day
13h 55m
Waning Gibbous, 80% of the Moon is Illuminated
Apr 29
Waning Gibbous
May 2
Last Quarter
May 9
New
May 17
First Quarter
May 24
Full

Hourly Weather History & Observations

Time (CDT) Temp. Dew Point Humidity Pressure Visibility Wind Dir Wind Speed Gust Speed Precip Events Conditions
12:53 AM 59.0 °F 34.0 °F 39% 29.79 in 10.0 mi Calm Calm - N/A   Partly Cloudy
1:53 AM 57.0 °F 35.1 °F 44% 29.80 in 10.0 mi North 5.8 mph - N/A   Clear
2:53 AM 55.9 °F 36.0 °F 47% 29.81 in 10.0 mi North 4.6 mph - N/A   Overcast
3:53 AM 55.0 °F 36.0 °F 49% 29.80 in 10.0 mi NNE 3.5 mph - N/A   Mostly Cloudy
4:53 AM 54.0 °F 36.0 °F 51% 29.80 in 10.0 mi Calm Calm - N/A   Scattered Clouds
5:53 AM 53.1 °F 37.0 °F 55% 29.81 in 10.0 mi ENE 6.9 mph - N/A   Mostly Cloudy
6:53 AM 51.1 °F 37.9 °F 61% 29.79 in 10.0 mi North 6.9 mph - 0.00 in   Overcast
7:53 AM 48.9 °F 37.0 °F 64% 29.78 in 10.0 mi East 5.8 mph - N/A   Clear
8:53 AM 53.1 °F 37.0 °F 55% 29.78 in 10.0 mi ENE 3.5 mph - N/A   Clear
9:53 AM 57.0 °F 37.9 °F 49% 29.76 in 10.0 mi ESE 8.1 mph - N/A   Clear
10:53 AM 64.9 °F 41.0 °F 42% 29.73 in 10.0 mi Variable 4.6 mph - N/A   Clear
11:53 AM 70.0 °F 41.0 °F 35% 29.69 in 10.0 mi SSE 6.9 mph - N/A   Clear
12:53 PM 73.9 °F 39.9 °F 29% 29.66 in 10.0 mi South 9.2 mph 17.3 mph N/A   Clear
1:53 PM 77.0 °F 39.9 °F 26% 29.62 in 10.0 mi SSW 10.4 mph 19.6 mph N/A   Clear
2:53 PM 79.0 °F 39.0 °F 24% 29.57 in 10.0 mi South 8.1 mph 18.4 mph N/A   Clear
3:53 PM 80.1 °F 37.9 °F 22% 29.54 in 10.0 mi SSW 12.7 mph 24.2 mph N/A   Clear
4:53 PM 82.0 °F 37.0 °F 20% 29.50 in 10.0 mi SSW 15.0 mph - N/A   Clear
5:53 PM 81.0 °F 37.0 °F 21% 29.47 in 10.0 mi South 18.4 mph - N/A   Clear
6:53 PM 80.1 °F 37.0 °F 21% 29.45 in 10.0 mi South 15.0 mph - N/A   Clear
7:53 PM 75.9 °F 37.9 °F 25% 29.45 in 10.0 mi SSE 12.7 mph - N/A   Clear
8:53 PM 72.0 °F 39.9 °F 31% 29.44 in 10.0 mi SSE 12.7 mph - N/A   Clear
9:53 PM 71.1 °F 41.0 °F 34% 29.44 in 10.0 mi SSE 15.0 mph - N/A   Clear
10:53 PM 69.8 °F 44.6 °F 40% 29.49 in 10.0 mi South 13.8 mph - N/A   Clear
11:53 PM 64.9 °F 45.0 °F 48% 29.42 in 10.0 mi South 10.4 mph - N/A   Clear